[[{"header":{"parameterUnit":"m.s-1","parameterCategory":1,"la1":30.2991,"la2":30.254,"lo1":-89.0895,"lo2":-89.0444,"dy":0.0017,"dx":0.0017,"nx":28,"ny":28,"refTime":"2025-04-07T09:00:00:Z","depth":0,"parameterNumber":2,"parameterNumberName":"U-component_of_WINDS"},"data":[0,0,0,0,0,0,0,0,0,0,0,0,0,0,0,0,0,0,0,0,0,0,0,0,0,0,0,0,0,0,0,0,0,0,0,0,0,0,0,0,0,0,0,0,0,0,0,0,0,0,0,0,0,0,0,0,0,0,2.6178,2.6178,0,2.621,2.6211,2.6211,2.6199,2.6198,2.6197,2.6197,2.6229,2.6231,2.6233,0,0,0,0,0,0,0,0,0,0,0,0,0,2.6103,2.6104,2.6178,2.6178,2.6178,2.621,2.6211,2.6211,2.6199,2.6198,2.6197,2.6196,2.6229,2.6231,2.6233,0,0,0,0,0,0,0,0,0,0,0,0,0,2.6135,2.6105,2.6178,2.6176,2.6176,2.621,2.6211,2.6211,2.6199,2.6198,2.6197,2.6196,2.6228,2.6231,2.6233,2.627,0,0,2.624,2.6241,0,0,0,0,0,0,0,0,2.6133,2.6138,2.6176,2.6176,2.6177,2.6199,2.6196,2.6231,2.62,2.6191,2.6197,2.6195,2.622,2.6223,2.6232,2.6271,2.6273,2.624,2.6242,2.6243,2.6243,0,0,0,0,0,0,0,2.6131,2.6137,2.619,2.6177,2.6177,2.6173,2.6177,2.6203,2.6211,2.6191,2.6191,2.6195,2.622,2.623,2.6232,2.6273,2.624,2.6242,2.6244,2.6245,2.6341,2.6342,0,0,0,0,0,0,2.6129,2.6135,2.6189,2.6191,2.6152,2.6176,2.6179,2.6193,2.6211,2.6213,2.6195,2.6194,2.6226,2.623,2.6234,2.6275,2.6243,2.6245,2.6246,2.634,2.6341,2.6343,0,0,0,0,0,0,2.6127,2.6134,2.6188,2.6163,2.617,2.6178,2.6194,2.6194,2.6204,2.6214,2.6215,2.6203,2.6225,2.623,2.626,2.6276,2.6246,2.6248,2.6338,2.634,2.6342,2.6361,0,0,0,0,0,0,2.6125,2.6134,2.6148,2.6163,2.6171,2.6215,2.6195,2.6196,2.6208,2.6206,2.6222,2.6224,2.6225,2.6257,2.6262,2.6279,2.625,2.6337,2.6339,2.6341,2.6359,2.6363,2.6367,0,0,0,0,0,2.6123,2.6153,2.6149,2.6156,2.6189,2.6216,2.622,2.6221,2.6209,2.6223,2.623,2.6223,2.6274,2.626,2.6266,2.6284,2.6336,2.6339,2.6341,2.6357,2.6362,2.6366,0,0,0,0,0,0,2.6139,2.6155,2.6151,2.6187,2.62,2.6214,2.6232,2.6227,2.6244,2.6242,2.6242,2.6246,2.6276,2.6283,2.6267,2.6319,2.6303,2.6307,2.6313,2.6318,2.6322,2.6319,2.6252,0,0,0,0,0,2.6147,2.6168,2.618,2.621,2.6217,2.6223,2.6235,2.6235,2.6248,2.6254,2.6263,2.6276,2.6294,2.6307,2.6325,2.636,2.6362,2.6375,2.6379,2.6382,2.6385,2.6402,2.6407,2.6351,2.6351,2.6351,0,0,2.6164,2.6175,2.6188,2.6214,2.6224,2.6244,2.6228,2.6251,2.6266,2.6257,2.6285,2.6292,2.6307,2.6339,2.6353,2.6346,2.6401,2.6386,2.6388,2.6389,2.6405,2.641,2.6415,2.6353,2.6352,2.6352,0,0,2.6203,2.6215,2.624,2.625,2.6266,2.6269,2.6275,2.629,2.6294,2.6322,2.6315,2.6333,2.6366,2.6376,2.6385,2.6427,2.642,2.6433,2.6453,2.6469,2.6473,2.6477,2.649,2.6494,2.6436,2.6436,2.6436,0,2.6222,2.6252,2.6254,2.6276,2.6287,2.628,2.6305,2.6315,2.6336,2.6343,2.6334,2.6374,2.6383,2.6416,2.6426,2.6435,2.644,2.643,2.6473,2.6476,2.648,2.6492,2.6497,2.6437,2.6437,2.6437,2.6437,0,2.6273,2.6294,2.6313,2.6332,2.6345,2.6369,2.6372,2.6385,2.6384,2.6388,2.6415,2.6427,2.6445,2.6454,2.6453,2.6486,2.648,2.6472,2.6456,2.6486,2.6498,2.6502,2.6439,2.6438,2.6438,2.6438,0,0,2.6324,2.6343,2.6349,2.6357,2.6373,2.6389,2.6412,2.643,2.644,2.6454,2.6472,2.6499,2.6491,2.6502,2.6502,2.6516,2.6545,2.6506,2.6506,2.6511,2.658,2.6585,2.659,2.6542,2.6543,2.6544,2.6578,0,2.6363,2.6403,2.6404,2.644,2.6458,2.6451,2.647,2.6482,2.6486,2.6501,2.6506,2.6524,2.6514,2.652,2.6534,2.6539,2.6559,2.6537,2.6557,2.6557,2.6551,2.6596,2.6602,2.6634,2.6583,2.6583,2.6584,0,2.6415,2.6429,2.6467,2.6478,2.6486,2.6503,2.6519,2.6535,2.6546,2.6548,2.6559,2.6557,2.6578,2.6562,2.6591,2.6576,2.6584,2.6588,2.6589,2.6589,2.6571,2.6596,2.6645,2.6649,2.6591,2.6591,2.659,0,2.6445,2.6475,2.65,2.6507,2.6522,2.6534,2.654,2.6551,2.6561,2.6575,2.6582,2.6598,2.6606,2.6619,2.662,2.6609,2.6648,2.6633,2.6649,2.6648,2.6656,2.6655,2.6704,2.6665,2.6665,2.6664,2.6664,0,2.6488,2.651,2.6514,2.6529,2.6554,2.6554,2.6578,2.6584,2.6593,2.6609,2.6605,2.6619,2.6621,2.6636,2.6637,2.6659,2.6663,2.6664,2.6664,2.6664,2.6663,2.6668,2.6665,2.6666,2.6665,2.6665,2.6665,0,2.6526,2.6529,2.6556,2.6567,2.657,2.6588,2.6597,2.6611,2.6614,2.6634,2.6639,2.6644,2.6661,2.6663,2.6684,2.6684,2.671,2.6709,2.6706,2.6705,2.672,2.6718,2.6773,2.6779,2.6737,2.6737,2.6737,0,2.6552,2.6569,2.6581,2.6591,2.6598,2.6615,2.6624,2.6625,2.6636,2.665,2.6662,2.6678,2.6691,2.6719,2.6724,2.6739,2.6736,2.6754,2.6738,2.6737,2.6734,2.6732,2.6733,2.6757,2.6757,2.6758,2.6758,0,2.6597,2.6597,2.6612,2.6627,2.6639,2.6651,2.6662,2.6671,2.6672,2.6684,2.6701,2.6712,2.6731,2.6747,2.6762,2.6767,2.6762,2.6763,2.6767,2.6766,2.6763,2.6763,2.6712,2.6761,2.6761,2.6761,2.6761,2.6761,2.6628,2.6642,2.6652,2.6668,2.6677,2.6687,2.67,2.6704,2.6719,2.6735,2.6734,2.6753,2.6762,2.6781,2.6788,2.6801,2.6795,2.6802,2.6803,2.6804,2.6805,2.6762,2.6804,2.6804,2.6804,2.6804,2.6804,0,2.6671,2.6677,2.6692,2.6707,2.6719,2.6714,2.6725,2.6736,2.6752,2.6761,2.6774,2.6792,2.6807,2.6813,2.6828,2.6837,2.6835,2.6841,2.6839,2.684,2.681,2.6804,2.6842,2.6842,2.6842,2.6842,2.6842,2.6842,2.6695,2.6717,2.6719,2.6744,2.675,2.6768,2.6774,2.6783,2.679,2.6811,2.6823,2.6827,2.6835,2.6849,2.6862,2.6864,2.6868,2.6874,2.6874,2.6846,2.6842,2.6839,2.6833,2.6876,2.6876,2.6903,2.6903,2.6903]},{"header":{"parameterUnit":"m.s-1","parameterCategory":1,"la1":30.2991,"la2":30.254,"lo1":-89.0895,"lo2":-89.0444,"dy":0.0017,"dx":0.0017,"nx":28,"ny":28,"refTime":"2025-04-07T09:00:00:Z","depth":0,"parameterNumber":3,"parameterNumberName":"V-component_of_WINDS"},"data":[0,0,0,0,0,0,0,0,0,0,0,0,0,0,0,0,0,0,0,0,0,0,0,0,0,0,0,0,0,0,0,0,0,0,0,0,0,0,0,0,0,0,0,0,0,0,0,0,0,0,0,0,0,0,0,0,0,0,-4.7771,-4.7773,0,-4.7961,-4.7963,-4.7966,-4.7923,-4.7919,-4.7915,-4.7912,-4.8109,-4.8117,-4.8126,0,0,0,0,0,0,0,0,0,0,0,0,0,-4.7371,-4.7379,-4.7771,-4.7773,-4.7775,-4.7961,-4.7963,-4.7966,-4.7923,-4.7919,-4.7914,-4.791,-4.8106,-4.8116,-4.8126,0,0,0,0,0,0,0,0,0,0,0,0,0,-4.7552,-4.7381,-4.777,-4.7776,-4.7779,-4.796,-4.7964,-4.7967,-4.7924,-4.7919,-4.7913,-4.7908,-4.8103,-4.8115,-4.8128,-4.8316,0,0,-4.8167,-4.8173,0,0,0,0,0,0,0,0,-4.7541,-4.7566,-4.7773,-4.7776,-4.7779,-4.7913,-4.7895,-4.8084,-4.7926,-4.7869,-4.7912,-4.7906,-4.8048,-4.8065,-4.8113,-4.8325,-4.8333,-4.8168,-4.8176,-4.8182,-4.8185,0,0,0,0,0,0,0,-4.7529,-4.7558,-4.7846,-4.7776,-4.778,-4.777,-4.779,-4.793,-4.7987,-4.7874,-4.7871,-4.7894,-4.8049,-4.81,-4.8117,-4.8336,-4.8168,-4.8179,-4.8187,-4.8192,-4.8712,-4.8718,0,0,0,0,0,0,-4.7513,-4.7548,-4.784,-4.7852,-4.7644,-4.7782,-4.7804,-4.7875,-4.7985,-4.7996,-4.7898,-4.7891,-4.8081,-4.8102,-4.8124,-4.8351,-4.8182,-4.8194,-4.8201,-4.8706,-4.8713,-4.872,0,0,0,0,0,0,-4.7505,-4.754,-4.7832,-4.7699,-4.7735,-4.7794,-4.7875,-4.7882,-4.7933,-4.8004,-4.8013,-4.7941,-4.8078,-4.8106,-4.8268,-4.8357,-4.82,-4.8211,-4.8699,-4.8708,-4.8717,-4.8807,0,0,0,0,0,0,-4.7494,-4.7537,-4.7609,-4.7701,-4.7743,-4.7974,-4.7881,-4.7889,-4.7956,-4.7948,-4.8046,-4.8057,-4.8075,-4.8249,-4.8281,-4.8372,-4.8221,-4.8691,-4.8703,-4.8714,-4.8797,-4.8818,-4.8837,0,0,0,0,0,-4.748,-4.7627,-4.7613,-4.7648,-4.7834,-4.7979,-4.8003,-4.802,-4.7963,-4.8036,-4.8081,-4.8054,-4.8342,-4.8266,-4.8302,-4.8398,-4.8686,-4.87,-4.8713,-4.8788,-4.8814,-4.8836,0,0,0,0,0,0,-4.7545,-4.7639,-4.7624,-4.7806,-4.7885,-4.7971,-4.8064,-4.8048,-4.8145,-4.8134,-4.8152,-4.8174,-4.834,-4.8385,-4.8299,-4.8586,-4.8506,-4.8527,-4.855,-4.8576,-4.8596,-4.8582,-4.8232,0,0,0,0,0,-4.758,-4.769,-4.7766,-4.7919,-4.7959,-4.8005,-4.8069,-4.8075,-4.8158,-4.8191,-4.8248,-4.8329,-4.8438,-4.8509,-4.8613,-4.8802,-4.8823,-4.8886,-4.8906,-4.8923,-4.8941,-4.9045,-4.9074,-4.8765,-4.8765,-4.8764,0,0,-4.7655,-4.772,-4.7788,-4.7934,-4.7996,-4.8109,-4.8033,-4.8156,-4.8241,-4.821,-4.8367,-4.8411,-4.8503,-4.868,-4.8761,-4.8723,-4.9031,-4.894,-4.8952,-4.8962,-4.9062,-4.9091,-4.9117,-4.8774,-4.8772,-4.8771,0,0,-4.7849,-4.7909,-4.8043,-4.8106,-4.82,-4.8229,-4.8261,-4.835,-4.8379,-4.8536,-4.8515,-4.8616,-4.8803,-4.8869,-4.8928,-4.9146,-4.9125,-4.9179,-4.9285,-4.9386,-4.941,-4.9432,-4.9511,-4.9538,-4.9197,-4.9198,-4.9198,0,-4.793,-4.81,-4.8114,-4.824,-4.8305,-4.828,-4.8417,-4.8477,-4.8601,-4.8647,-4.8602,-4.8836,-4.8896,-4.9088,-4.9141,-4.9189,-4.9227,-4.9169,-4.9406,-4.9428,-4.9448,-4.9523,-4.9552,-4.9204,-4.9203,-4.9202,-4.9202,0,-4.8195,-4.8313,-4.841,-4.8529,-4.8605,-4.8735,-4.877,-4.8845,-4.8844,-4.8878,-4.9039,-4.911,-4.9228,-4.9274,-4.9276,-4.9467,-4.944,-4.9401,-4.9321,-4.9483,-4.9554,-4.9583,-4.9212,-4.921,-4.9208,-4.9207,0,0,-4.8437,-4.8561,-4.8597,-4.8651,-4.8752,-4.8844,-4.8973,-4.9087,-4.9152,-4.9237,-4.9347,-4.9505,-4.9469,-4.9535,-4.9543,-4.9632,-4.9801,-4.9581,-4.9584,-4.962,-5.0016,-5.0046,-5.0079,-4.9787,-4.9792,-4.9797,-5.0009,0,-4.8641,-4.8867,-4.8884,-4.9089,-4.9198,-4.9177,-4.9289,-4.9364,-4.9399,-4.9497,-4.9535,-4.9647,-4.9591,-4.9631,-4.9717,-4.9762,-4.9881,-4.9747,-4.9889,-4.9894,-4.9868,-5.0116,-5.0149,-5.0345,-5.0037,-5.0041,-5.0045,0,-4.8909,-4.9002,-4.9218,-4.9303,-4.935,-4.9451,-4.9557,-4.9651,-4.9735,-4.9754,-4.9828,-4.9824,-4.9957,-4.9871,-5.0055,-4.9963,-5.0023,-5.0053,-5.0061,-5.0076,-4.998,-5.0139,-5.0408,-5.0438,-5.0088,-5.0085,-5.0082,0,-4.9065,-4.9244,-4.9396,-4.9442,-4.9546,-4.9617,-4.9664,-4.9743,-4.9811,-4.9904,-4.9948,-5.0055,-5.0115,-5.0198,-5.0223,-5.0159,-5.0407,-5.0323,-5.0427,-5.0426,-5.0481,-5.0477,-5.0765,-5.0518,-5.0517,-5.0517,-5.0516,0,-4.9291,-4.9424,-4.9467,-4.9561,-4.9709,-4.9727,-4.9873,-4.9916,-4.9986,-5.0088,-5.0076,-5.0172,-5.0199,-5.03,-5.0321,-5.047,-5.0496,-5.0516,-5.052,-5.0518,-5.0516,-5.0558,-5.0545,-5.0524,-5.0523,-5.0521,-5.052,0,-4.9491,-4.9525,-4.9689,-4.9773,-4.9798,-4.9903,-4.9976,-5.0066,-5.0098,-5.0228,-5.0259,-5.0311,-5.0429,-5.0462,-5.0604,-5.0618,-5.0794,-5.0785,-5.0765,-5.0766,-5.0868,-5.0858,-5.1194,-5.1239,-5.0961,-5.0963,-5.0965,0,-4.9633,-4.9735,-4.983,-4.9897,-4.9946,-5.0055,-5.0123,-5.0144,-5.0217,-5.032,-5.0398,-5.0515,-5.0609,-5.0799,-5.085,-5.0958,-5.0952,-5.1062,-5.0969,-5.0963,-5.0955,-5.0949,-5.096,-5.108,-5.1083,-5.1086,-5.1088,0,-4.9884,-4.9895,-4.9994,-5.01,-5.0183,-5.0267,-5.0348,-5.0404,-5.0436,-5.0518,-5.0638,-5.0712,-5.0856,-5.0972,-5.1082,-5.113,-5.1116,-5.1116,-5.1146,-5.1146,-5.1131,-5.1141,-5.0815,-5.1109,-5.1107,-5.1105,-5.1104,-5.1103,-5.006,-5.0149,-5.023,-5.0341,-5.0404,-5.048,-5.0569,-5.0612,-5.0712,-5.0831,-5.0837,-5.0968,-5.105,-5.1195,-5.125,-5.1353,-5.132,-5.1363,-5.1374,-5.1385,-5.1394,-5.1113,-5.1372,-5.1372,-5.1371,-5.1371,-5.1371,0,-5.031,-5.036,-5.0462,-5.0576,-5.0663,-5.064,-5.0728,-5.0803,-5.0918,-5.0995,-5.1088,-5.1226,-5.1339,-5.1397,-5.1509,-5.158,-5.1576,-5.1609,-5.1605,-5.1616,-5.1416,-5.138,-5.1611,-5.1611,-5.161,-5.161,-5.161,-5.161,-5.0451,-5.0601,-5.0622,-5.0803,-5.0853,-5.098,-5.1033,-5.1103,-5.1164,-5.1319,-5.1412,-5.1449,-5.1519,-5.1635,-5.1738,-5.1752,-5.1794,-5.1831,-5.1842,-5.1655,-5.163,-5.1607,-5.1573,-5.184,-5.184,-5.2033,-5.2035,-5.2037]}]]